{"data":{"norad_id":62276,"epoch":"2026-09-21T14:17:51.943776Z","epoch_age_seconds":82915,"freshness":"FRESH","line1":"1 62276U 24237K   26264.59574009  .00129580  00000+0  99724-3 0  9998","line2":"2 62276  43.0009 315.7124 0001693 254.2198 105.8483 15.70850015103863","mean_motion":15.70850015,"eccentricity":0.0001693,"inclination_deg":43.0009,"raan_deg":315.7124,"arg_perigee_deg":254.2198,"mean_anomaly_deg":105.8483,"bstar":0.00099724,"rev_number":10386,"period_min":91.670114030587,"perigee_km":355.32626861443,"apogee_km":357.60660533819,"semimajor_km":6734.6034369763,"source":"CELESTRAK","updated_at":"2026-09-22T09:00:49.567520Z"}}